[[{"header":{"parameterUnit":"m.s-1","parameterCategory":1,"la1":30.2991,"la2":30.254,"lo1":-89.0895,"lo2":-89.0444,"dy":0.0017,"dx":0.0017,"nx":28,"ny":28,"refTime":"2025-04-17T09:00:00:Z","depth":0,"parameterNumber":2,"parameterNumberName":"U-component_of_WINDS"},"data":[0,0,0,0,0,0,0,0,0,0,0,0,0,0,0,0,0,0,0,0,0,0,0,0,0,0,0,0,0,0,0,0,0,0,0,0,0,0,0,0,0,0,0,0,0,0,0,0,0,0,0,0,0,0,0,0,0,0,0.1693,0.1692,0,0.1644,0.1643,0.1642,0.1579,0.1578,0.1577,0.1576,0.1527,0.1526,0.1526,0,0,0,0,0,0,0,0,0,0,0,0,0,0.1732,0.1732,0.1693,0.1692,0.1691,0.1644,0.1643,0.1642,0.1579,0.1578,0.1577,0.1575,0.1527,0.1526,0.1526,0,0,0,0,0,0,0,0,0,0,0,0,0,0.1702,0.1731,0.1693,0.1654,0.165,0.1644,0.1643,0.1642,0.1579,0.1578,0.1576,0.1575,0.1527,0.1526,0.1526,0.1554,0,0,0.1524,0.1524,0,0,0,0,0,0,0,0,0.1704,0.1701,0.166,0.1657,0.1652,0.1616,0.1639,0.1613,0.158,0.1606,0.1576,0.1574,0.1558,0.1554,0.1549,0.1552,0.1549,0.1524,0.1524,0.1524,0.1524,0,0,0,0,0,0,0,0.1706,0.1703,0.1673,0.166,0.1655,0.1639,0.1633,0.1634,0.1591,0.1604,0.1599,0.1594,0.1555,0.1549,0.1547,0.1549,0.1524,0.1524,0.1523,0.1523,0.1571,0.1572,0,0,0,0,0,0,0.1714,0.1705,0.1675,0.1672,0.1675,0.164,0.1633,0.1629,0.1591,0.1584,0.1595,0.1591,0.1551,0.1548,0.1545,0.1574,0.1524,0.1523,0.1523,0.1569,0.1571,0.1573,0,0,0,0,0,0,0.1715,0.1712,0.1677,0.1687,0.1681,0.1641,0.1637,0.1629,0.1623,0.1585,0.1577,0.1597,0.155,0.1546,0.1552,0.1571,0.1523,0.1523,0.1567,0.157,0.1572,0.1633,0,0,0,0,0,0,0.1716,0.1713,0.1723,0.1688,0.1681,0.1684,0.1638,0.1629,0.1622,0.1616,0.1584,0.1578,0.1548,0.1553,0.1551,0.157,0.1522,0.1565,0.1568,0.1571,0.1629,0.1637,0.1644,0,0,0,0,0,0.1718,0.1742,0.1723,0.172,0.1693,0.1686,0.1682,0.1647,0.1624,0.1634,0.1609,0.1579,0.157,0.1554,0.1552,0.157,0.1564,0.1567,0.1571,0.1625,0.1635,0.1644,0,0,0,0,0,0,0.1781,0.1737,0.1716,0.1729,0.1712,0.1675,0.1686,0.1659,0.1647,0.1642,0.16,0.1593,0.1604,0.1588,0.1571,0.1595,0.1562,0.1565,0.1605,0.1614,0.1621,0.1624,0.1522,0,0,0,0,0,0.1797,0.1794,0.1756,0.1772,0.1764,0.1727,0.1722,0.1697,0.1677,0.1669,0.1645,0.1627,0.162,0.1616,0.1608,0.1627,0.1618,0.1638,0.1646,0.1652,0.1655,0.1663,0.1671,0.1584,0.1584,0.1584,0,0,0.1829,0.1804,0.1805,0.1784,0.1767,0.1765,0.1721,0.1721,0.1719,0.1669,0.1673,0.1655,0.1632,0.1644,0.1648,0.1631,0.1677,0.1657,0.1662,0.1661,0.1667,0.1675,0.1683,0.1587,0.1586,0.1586,0,0,0.1885,0.1868,0.1878,0.1862,0.1837,0.1812,0.1815,0.1782,0.1768,0.177,0.1733,0.173,0.1719,0.1704,0.1695,0.1746,0.1717,0.1745,0.1783,0.1791,0.1798,0.1804,0.182,0.1827,0.1748,0.1748,0.1748,0,0.1928,0.1924,0.1887,0.1889,0.188,0.1835,0.1845,0.1831,0.1805,0.18,0.1781,0.1766,0.1748,0.1755,0.1767,0.1762,0.1763,0.1747,0.18,0.1805,0.181,0.1826,0.1832,0.1752,0.1751,0.1751,0.1751,0,0.1977,0.1975,0.1986,0.1961,0.1954,0.196,0.1924,0.1921,0.1897,0.1874,0.1877,0.1854,0.1839,0.1839,0.1816,0.1843,0.1833,0.1808,0.1774,0.1823,0.1836,0.1842,0.1756,0.1755,0.1754,0.1753,0,0,0.2071,0.2025,0.203,0.2017,0.1987,0.1984,0.1989,0.1974,0.1972,0.1956,0.1957,0.1949,0.1926,0.1915,0.189,0.1897,0.1937,0.1871,0.187,0.1882,0.1964,0.1982,0.1989,0.1918,0.1919,0.192,0.1965,0,0.212,0.2124,0.2091,0.2104,0.21,0.2058,0.2061,0.2043,0.2022,0.2016,0.1993,0.1987,0.1957,0.195,0.1956,0.1931,0.1953,0.1928,0.1919,0.1919,0.1924,0.1996,0.2015,0.2059,0.197,0.1971,0.1972,0,0.2178,0.2164,0.2177,0.2145,0.2142,0.2146,0.2129,0.2125,0.2103,0.2087,0.2076,0.2046,0.2048,0.2017,0.2018,0.2002,0.1997,0.1984,0.1985,0.1981,0.1947,0.1993,0.2072,0.2078,0.198,0.198,0.1979,0,0.2243,0.2228,0.2233,0.2224,0.2187,0.2191,0.2176,0.2152,0.2145,0.2131,0.2126,0.2113,0.2105,0.2095,0.2063,0.2044,0.2068,0.2034,0.2053,0.2054,0.2059,0.2059,0.2136,0.2059,0.2059,0.2059,0.2058,0,0.23,0.2309,0.2261,0.2264,0.2273,0.2235,0.2245,0.2225,0.2205,0.2203,0.2166,0.2166,0.2124,0.2119,0.2094,0.2097,0.2095,0.2081,0.2074,0.2084,0.2085,0.2078,0.2074,0.206,0.206,0.206,0.2059,0,0.2373,0.2342,0.2344,0.2309,0.2301,0.2308,0.2278,0.228,0.2257,0.2255,0.2252,0.2216,0.2208,0.2175,0.2159,0.2142,0.2154,0.2141,0.2161,0.2156,0.2176,0.2174,0.225,0.2258,0.2178,0.2179,0.2179,0,0.2411,0.2416,0.2382,0.2378,0.2365,0.2359,0.2352,0.2315,0.2309,0.2285,0.2289,0.2277,0.2266,0.2255,0.2227,0.2214,0.22,0.2228,0.2198,0.2207,0.2198,0.2197,0.2197,0.2234,0.2235,0.2235,0.2236,0,0.2481,0.2465,0.2455,0.2441,0.2433,0.2419,0.2404,0.2403,0.2362,0.2357,0.2348,0.2339,0.2323,0.2311,0.2294,0.2279,0.225,0.2246,0.2249,0.2258,0.2268,0.2261,0.2176,0.2244,0.2243,0.2243,0.2242,0.2242,0.2535,0.2538,0.2514,0.2505,0.2489,0.2476,0.2475,0.2452,0.2443,0.2427,0.2406,0.2399,0.2377,0.2351,0.2337,0.2331,0.2316,0.2321,0.2322,0.2324,0.2328,0.2271,0.2328,0.2328,0.2328,0.2328,0.2327,0,0.2601,0.2584,0.2576,0.2555,0.2548,0.2523,0.2504,0.25,0.2494,0.2476,0.2466,0.2455,0.2444,0.2416,0.2402,0.2402,0.2389,0.24,0.2398,0.2395,0.2343,0.2341,0.2411,0.2411,0.2411,0.2411,0.2411,0.2411,0.2635,0.2637,0.2619,0.2613,0.2596,0.2589,0.258,0.2567,0.2552,0.2542,0.2533,0.2514,0.2492,0.2476,0.2465,0.2457,0.2452,0.2467,0.2455,0.2407,0.2399,0.2391,0.2388,0.2467,0.2467,0.2506,0.2507,0.2507]},{"header":{"parameterUnit":"m.s-1","parameterCategory":1,"la1":30.2991,"la2":30.254,"lo1":-89.0895,"lo2":-89.0444,"dy":0.0017,"dx":0.0017,"nx":28,"ny":28,"refTime":"2025-04-17T09:00:00:Z","depth":0,"parameterNumber":3,"parameterNumberName":"V-component_of_WINDS"},"data":[0,0,0,0,0,0,0,0,0,0,0,0,0,0,0,0,0,0,0,0,0,0,0,0,0,0,0,0,0,0,0,0,0,0,0,0,0,0,0,0,0,0,0,0,0,0,0,0,0,0,0,0,0,0,0,0,0,0,1.2289,1.2288,0,1.2211,1.221,1.2209,1.2096,1.2094,1.2092,1.209,1.2012,1.2012,1.2012,0,0,0,0,0,0,0,0,0,0,0,0,0,1.234,1.234,1.2289,1.2288,1.2287,1.2211,1.221,1.2209,1.2097,1.2094,1.2092,1.209,1.2012,1.2012,1.2012,0,0,0,0,0,0,0,0,0,0,0,0,0,1.2296,1.234,1.2289,1.2222,1.2215,1.2211,1.221,1.2209,1.2097,1.2094,1.2091,1.2088,1.2012,1.2012,1.2012,1.2068,0,0,1.2011,1.201,0,0,0,0,0,0,0,0,1.2299,1.2294,1.2233,1.2226,1.2219,1.216,1.2199,1.2162,1.2098,1.2142,1.209,1.2087,1.2064,1.2059,1.2051,1.2065,1.2061,1.2011,1.201,1.201,1.201,0,0,0,0,0,0,0,1.2302,1.2297,1.2258,1.2232,1.2223,1.2195,1.2186,1.2192,1.212,1.2138,1.2129,1.2122,1.206,1.2052,1.2048,1.206,1.2011,1.201,1.201,1.201,1.2114,1.2117,0,0,0,0,0,0,1.2315,1.23,1.226,1.2256,1.2252,1.2197,1.2186,1.2182,1.212,1.2108,1.2124,1.2117,1.2054,1.2049,1.2045,1.2106,1.201,1.201,1.201,1.2111,1.2114,1.2118,0,0,0,0,0,0,1.2316,1.2312,1.2264,1.2276,1.2267,1.2199,1.2195,1.2182,1.2174,1.211,1.2097,1.2129,1.2051,1.2046,1.2063,1.2101,1.201,1.2009,1.2107,1.2112,1.2116,1.2228,0,0,0,0,0,0,1.2318,1.2314,1.2335,1.2277,1.2267,1.2283,1.2198,1.2183,1.2173,1.2163,1.2111,1.21,1.2049,1.2064,1.2062,1.2099,1.2009,1.2104,1.2109,1.2115,1.2221,1.2236,1.2249,0,0,0,0,0,1.2321,1.237,1.2336,1.2332,1.2292,1.2285,1.228,1.222,1.2177,1.2197,1.2156,1.2101,1.2098,1.2067,1.2064,1.2101,1.2101,1.2108,1.2114,1.2215,1.2233,1.2249,0,0,0,0,0,0,1.2435,1.2361,1.2323,1.2355,1.2327,1.2266,1.229,1.2242,1.2226,1.2216,1.2143,1.2132,1.2158,1.2131,1.2098,1.2152,1.2091,1.2097,1.2168,1.2185,1.2199,1.2205,1.2009,0,0,0,0,0,1.2464,1.2464,1.24,1.2435,1.2423,1.2359,1.2354,1.231,1.2278,1.2266,1.2226,1.2198,1.2189,1.2186,1.2175,1.2217,1.2203,1.2241,1.2255,1.2267,1.2273,1.2291,1.2307,1.214,1.214,1.214,0,0,1.2523,1.2483,1.2488,1.2457,1.243,1.2432,1.235,1.2356,1.2357,1.2267,1.228,1.225,1.2213,1.2242,1.2253,1.2221,1.2316,1.2276,1.2286,1.2285,1.23,1.2315,1.2329,1.2144,1.2144,1.2143,0,0,1.2633,1.2603,1.2628,1.2602,1.2562,1.252,1.2526,1.2472,1.2448,1.246,1.2392,1.2391,1.238,1.2356,1.2342,1.2442,1.239,1.244,1.2514,1.2532,1.2545,1.2556,1.259,1.2603,1.2447,1.2447,1.2447,0,1.2712,1.2712,1.2647,1.2657,1.2644,1.2562,1.2586,1.2565,1.2524,1.2517,1.2482,1.2464,1.2434,1.2455,1.2479,1.2471,1.2475,1.2445,1.2549,1.2559,1.2569,1.26,1.2613,1.2453,1.2453,1.2452,1.2451,0,1.2811,1.2813,1.2837,1.2799,1.2789,1.2806,1.2743,1.2741,1.2698,1.2659,1.2671,1.2631,1.261,1.2612,1.2571,1.2627,1.2608,1.2562,1.2499,1.2592,1.262,1.2632,1.2462,1.246,1.2458,1.2457,0,0,1.299,1.2915,1.2925,1.2905,1.2855,1.2854,1.2868,1.2846,1.2845,1.282,1.2828,1.2819,1.2776,1.276,1.2715,1.2731,1.281,1.2682,1.268,1.2706,1.2868,1.2902,1.2917,1.2776,1.2778,1.278,1.287,0,1.3089,1.3106,1.3047,1.308,1.3079,1.3001,1.3012,1.2982,1.2946,1.294,1.29,1.2894,1.2838,1.2827,1.284,1.2798,1.2841,1.2791,1.2782,1.2782,1.2792,1.2932,1.2969,1.3056,1.2881,1.2883,1.2884,0,1.3206,1.3186,1.3218,1.3164,1.3162,1.3173,1.3148,1.3143,1.3107,1.308,1.3062,1.3009,1.3017,1.2958,1.2967,1.2934,1.2927,1.2905,1.2907,1.2903,1.2838,1.2931,1.3083,1.3096,1.2901,1.29,1.2898,0,1.3332,1.3313,1.3329,1.3315,1.3253,1.3262,1.3237,1.3198,1.3188,1.3167,1.3159,1.3139,1.3128,1.3113,1.3056,1.3018,1.3072,1.3008,1.3048,1.3049,1.3062,1.3062,1.3214,1.306,1.306,1.306,1.3059,0,1.3447,1.347,1.3384,1.3394,1.3416,1.3348,1.3372,1.3339,1.3305,1.3307,1.3238,1.3241,1.3166,1.316,1.3116,1.3129,1.3125,1.3102,1.309,1.3108,1.311,1.3101,1.3093,1.3063,1.3062,1.3062,1.3061,0,1.3591,1.3535,1.3547,1.3487,1.3472,1.3492,1.344,1.3446,1.3405,1.3408,1.3405,1.3341,1.333,1.3272,1.3248,1.3218,1.3247,1.3223,1.3259,1.3251,1.3293,1.329,1.3444,1.346,1.3298,1.3299,1.3301,0,1.3668,1.3683,1.3624,1.362,1.3598,1.3593,1.3582,1.3516,1.3508,1.3467,1.3478,1.3462,1.3446,1.3433,1.3383,1.3365,1.3339,1.3394,1.3336,1.3352,1.3338,1.3337,1.3337,1.3407,1.3409,1.3411,1.3412,0,1.3809,1.378,1.3768,1.3746,1.3735,1.3714,1.369,1.369,1.3616,1.3611,1.3599,1.3586,1.3561,1.3546,1.3518,1.3491,1.3439,1.3431,1.3439,1.3457,1.3476,1.3464,1.3292,1.3427,1.3426,1.3425,1.3424,1.3423,1.392,1.393,1.3889,1.3878,1.3852,1.383,1.3832,1.3791,1.3781,1.3755,1.3716,1.371,1.3672,1.3629,1.3606,1.3599,1.357,1.3582,1.3584,1.3588,1.3597,1.3478,1.3594,1.3594,1.3593,1.3593,1.3593,0,1.4057,1.4027,1.4017,1.3984,1.3974,1.3926,1.3896,1.3891,1.3886,1.3855,1.384,1.3826,1.381,1.3759,1.3738,1.3742,1.3718,1.3739,1.3737,1.3732,1.3625,1.362,1.3759,1.3759,1.3759,1.3759,1.3759,1.3759,1.4127,1.4139,1.4106,1.4105,1.4074,1.4067,1.4054,1.4033,1.4007,1.3995,1.3981,1.3948,1.3909,1.3884,1.3867,1.3852,1.3847,1.3876,1.3854,1.3755,1.3739,1.3724,1.3718,1.3876,1.3876,1.396,1.3961,1.3961]}]]